Showing default

TK-2, 52150

Orbit data source: Space-Track

TK-2, 52150 is a payload satellite owned by CASIC 2nd Acad (CN) in SSO that was launched on Tue, 29 Mar 2022 UTC via a CHANG ZHENG 6A launch vehicle from the Taiyaun Space Center, China (TSC). Payload-class satellites include a variety of spacecraft equipped with specific instruments for various scientific and technological missions. These include communications satellites like Starlink; space stations such as the ISS; scientific satellites like the Hubble; Earth observation satellites from companies like Planet Labs, Umbra, and HawkEye 360; GPS; miniature CubeSats for education and research; and military/defense satellites.

Loading next visibility...
Identifier
52150, 2022-031A
Orbit
SSO
Country
Flag of CNCN / PRC
Related business
Manufacturer
CASIC 2nd Acad
Mission
Operational Civil Technology
Bus & Motor
TK-1, Unknown motor
Mass
90 kg wet, ~90 kg dry
Launch date (UTC)
2022-03-29 (4 years ago)
Launch vehicle
CHANG ZHENG 6A
Launch site
Taiyaun Space Center, China (TSC)
Object type
Payload
Rocket body
Debris
Shape & HBR
Box + 4 Pan, 1.4 m
Radar Cross Section
1.712 m², Medium (>0.1 m² and < 1m²)

Expand to show TLE details & history
Last TLE update: 22 hours ago

TLE from 22 hours ago
0 TK-2
1 52150U 22031A   26172.52364836  .00001683  00000-0  12752-3 0  9994
2 52150  97.8321   8.7164 0017281 109.2121 251.0976 15.03570644231119
Epoch: 2026-06-21T12:34Z
TLE epoch observation values (Epoch: 2026-06-21T12:34:03.218Z)
Latitude
0.00002°
Longitude
-89.5197°
Altitude
562.854 km
Speed
7.578 km/s
True Right ascension
00h 34m 51s
True Declination
0° 00' 00"
Sunlit
Object was in daylight at epoch
Visualization orbit readout
Latitude
Unknown
Longitude
Unknown
Altitude
Unknown
Speed
Unknown
Apparent Right ascension
Unknown
Apparent Declination
Unknown
Sunlit
N/A
Visualization observer readout
Local Sidereal Time
21:34:36
Azimuth
Unknown
Elevation
Unknown
Doppler factor
Unknown
Orbital elements
Apogee altitude
564.881 km
Perigee altitude
540.926 km
Semi-major axis
6,931.04 km
Eccentricity
0.00173
Inclination
97.8321°
RAAN
8.7164°
Arg. of periapsis
109.2121°
True anomaly
250.91038°
Mean anomaly
251.0976°
Eccentric anomaly
251.00398°
Mean motion
3.76137 °/min
Orbital period
95.71 mins
BSTAR
0.00012752
Loading maneuver chart data...
Computing Atmospheric mass density...
Loading historical data...
Loading historical data...
Loading historical data...
Loading historical data...
Loading historical data...
Loading historical data...
Loading historical data...
Other satellites on launch #31 in the year 2022 (2022-03-29 UTC)

Documentation

Showing up to 5 results
|